timestamp,surface_pressure_avg,surface_temp_avg,battery_voltage,lat,long
2022-08-22 00:09:00+00:00,236.4314,18.6,11.46,47.84626,-54.09684
2022-08-22 00:19:00+00:00,232.7914,18.58,11.46,47.84626,-54.09684
2022-08-22 00:29:00+00:00,231.6764,18.5,11.46,47.84626,-54.09684
2022-08-22 00:39:00+00:00,230.3947,18.5,11.46,47.84626,-54.09684
2022-08-22 00:49:00+00:00,226.2498,18.5,11.46,47.84626,-54.09684
2022-08-22 00:59:00+00:00,223.6481,18.5,11.46,47.84626,-54.09684
2022-08-22 01:09:00+00:00,224.3548,18.5,11.46,47.84626,-54.09684
2022-08-22 01:19:00+00:00,224.8865,18.5,11.46,47.84626,-54.09684
2022-08-22 01:29:00+00:00,223.5597,18.5,11.46,47.84626,-54.09684
2022-08-22 01:39:00+00:00,222.1981,18.5,11.46,47.84626,-54.09684
2022-08-22 01:49:00+00:00,221.8348,18.54,11.46,47.84626,-54.09684
2022-08-22 01:59:00+00:00,221.3064,18.56,11.46,47.84626,-54.09684
2022-08-22 02:09:00+00:00,220.3298,18.55,11.46,47.84626,-54.09684
2022-08-22 02:19:00+00:00,221.3415,18.56,11.46,47.84626,-54.09684
2022-08-22 02:29:00+00:00,223.2397,18.52,11.46,47.84626,-54.09684
2022-08-22 02:39:00+00:00,222.9881,18.5,11.46,47.84626,-54.09684
2022-08-22 02:49:00+00:00,220.5197,18.5,11.46,47.84626,-54.09684
2022-08-22 02:59:00+00:00,218.8931,18.48,11.46,47.84626,-54.09684
2022-08-22 03:09:00+00:00,219.1614,18.4,11.46,47.84626,-54.09684
2022-08-22 03:19:01+00:00,219.0865,18.4,11.46,47.84626,-54.09684
2022-08-22 03:29:01+00:00,219.2181,18.4,11.46,47.84626,-54.09684
2022-08-22 03:39:01+00:00,220.8548,18.39,11.46,47.84626,-54.09684
2022-08-22 03:49:01+00:00,223.9731,18.4,11.46,47.84626,-54.09684
2022-08-22 03:59:01+00:00,224.2598,18.4,11.46,47.84626,-54.09684
2022-08-22 04:09:01+00:00,226.1064,18.4,11.46,47.84626,-54.09684
2022-08-22 04:19:01+00:00,232.3664,18.41,11.46,47.84626,-54.09684
2022-08-22 04:29:01+00:00,236.5814,18.44,11.46,47.84626,-54.09684
2022-08-22 04:39:01+00:00,236.1564,18.43,11.46,47.84626,-54.09684
2022-08-22 04:49:01+00:00,238.6031,18.42,11.46,47.84626,-54.09684
2022-08-22 04:59:01+00:00,245.1164,18.41,11.46,47.84626,-54.09684
2022-08-22 05:09:01+00:00,247.2547,18.41,11.46,47.84626,-54.09684
2022-08-22 05:19:00+00:00,247.9831,18.4,11.46,47.84626,-54.09684
2022-08-22 05:29:00+00:00,252.8965,18.4,11.46,47.84626,-54.09684
2022-08-22 05:39:00+00:00,258.8498,18.4,11.46,47.84626,-54.09684
2022-08-22 05:49:00+00:00,258.4014,18.4,11.46,47.84626,-54.09684
2022-08-22 05:59:00+00:00,258.4881,18.4,11.46,47.84626,-54.09684
2022-08-22 06:09:00+00:00,264.1781,18.4,11.46,47.84626,-54.09684
2022-08-22 06:19:01+00:00,268.5464,18.4,11.46,47.84626,-54.09684
2022-08-22 06:29:01+00:00,267.8097,18.4,11.46,47.84626,-54.09684
2022-08-22 06:39:01+00:00,268.9131,18.4,11.46,47.84626,-54.09684
2022-08-22 06:49:01+00:00,273.9297,18.4,11.46,47.84626,-54.09684
2022-08-22 06:59:01+00:00,275.5381,18.4,11.46,47.84626,-54.09684
2022-08-22 07:09:01+00:00,275.6897,18.4,11.46,47.84626,-54.09684
2022-08-22 07:19:00+00:00,277.6331,18.4,11.37,47.84626,-54.09684
2022-08-22 07:29:00+00:00,279.238,18.4,11.37,47.84626,-54.09684
2022-08-22 07:39:00+00:00,278.0997,18.4,11.37,47.84626,-54.09684
2022-08-22 07:49:00+00:00,281.0164,18.4,11.37,47.84626,-54.09684
2022-08-22 07:59:00+00:00,282.3231,18.4,11.37,47.84626,-54.09684
2022-08-22 08:09:00+00:00,281.8547,18.4,11.37,47.84626,-54.09684
2022-08-22 08:19:00+00:00,281.5764,18.4,11.37,47.84626,-54.09684
2022-08-22 08:29:00+00:00,284.4297,18.4,11.37,47.84626,-54.09684
2022-08-22 08:39:00+00:00,282.6097,18.4,11.37,47.84626,-54.09684
2022-08-22 08:49:00+00:00,281.3781,18.4,11.37,47.84626,-54.09684
2022-08-22 08:59:00+00:00,280.9098,18.4,11.37,47.84626,-54.09684
2022-08-22 09:09:00+00:00,280.1564,18.4,11.37,47.84626,-54.09684
2022-08-22 09:19:01+00:00,275.7664,18.4,11.37,47.84626,-54.09684
2022-08-22 09:29:01+00:00,270.5247,18.4,11.37,47.84626,-54.09684
2022-08-22 09:39:01+00:00,266.9581,18.4,11.37,47.84626,-54.09684
2022-08-22 09:49:01+00:00,266.5464,18.4,11.37,47.84626,-54.09684
2022-08-22 09:59:01+00:00,266.6081,18.4,11.37,47.84626,-54.09684
2022-08-22 10:09:01+00:00,263.023,18.4,11.37,47.84626,-54.09684
2022-08-22 10:19:01+00:00,258.4614,18.4,11.37,47.84626,-54.09684
2022-08-22 10:29:01+00:00,257.928,18.4,11.37,47.84626,-54.09684
2022-08-22 10:39:01+00:00,258.8231,18.4,11.37,47.84626,-54.09684
2022-08-22 10:49:01+00:00,252.9147,18.4,11.37,47.84626,-54.09684
2022-08-22 10:59:01+00:00,245.9231,18.47,11.37,47.84626,-54.09684
2022-08-22 11:09:01+00:00,242.7381,18.5,11.37,47.84626,-54.09684
2022-08-22 11:19:00+00:00,239.8364,18.5,11.37,47.84626,-54.09684
2022-08-22 11:29:00+00:00,234.5398,18.5,11.37,47.84626,-54.09684
2022-08-22 11:39:00+00:00,230.9131,18.5,11.37,47.84626,-54.09684
2022-08-22 11:49:00+00:00,230.7931,18.5,11.37,47.84626,-54.09684
2022-08-22 11:59:00+00:00,229.1998,18.52,11.37,47.84626,-54.09684
2022-08-22 12:09:00+00:00,227.2647,18.55,11.37,47.84626,-54.09684
2022-08-22 12:19:00+00:00,226.7214,18.58,11.46,47.84626,-54.09684
2022-08-22 12:29:00+00:00,228.2081,18.59,11.46,47.84626,-54.09684
2022-08-22 12:39:00+00:00,228.0948,18.6,11.46,47.84626,-54.09684
2022-08-22 12:49:00+00:00,224.6314,18.6,11.46,47.84626,-54.09684
2022-08-22 12:59:00+00:00,220.3131,18.6,11.46,47.84626,-54.09684
2022-08-22 13:09:00+00:00,220.1297,18.6,11.46,47.84626,-54.09684
2022-08-22 13:19:00+00:00,220.5598,18.6,11.46,47.84626,-54.09684
2022-08-22 13:29:00+00:00,216.6398,18.61,11.46,47.84626,-54.09684
2022-08-22 13:39:00+00:00,213.3231,18.66,11.46,47.84626,-54.09684
2022-08-22 13:49:00+00:00,214.4681,18.69,11.46,47.84626,-54.09684
2022-08-22 13:59:00+00:00,215.4731,18.7,11.46,47.84626,-54.09684
2022-08-22 14:09:00+00:00,214.6081,18.7,11.46,47.84626,-54.09684
2022-08-22 14:19:01+00:00,215.9231,18.7,11.7,47.84626,-54.09684
2022-08-22 14:29:01+00:00,217.6198,18.7,11.7,47.84626,-54.09684
2022-08-22 14:39:01+00:00,216.8581,18.7,11.7,47.84626,-54.09684
2022-08-22 14:49:01+00:00,218.0898,18.7,11.7,47.84626,-54.09684
2022-08-22 14:59:01+00:00,221.6398,18.71,11.7,47.84626,-54.09684
2022-08-22 15:09:01+00:00,223.9531,18.76,11.7,47.84626,-54.09684
2022-08-22 15:19:00+00:00,224.3715,18.74,11.7,47.84626,-54.09684
2022-08-22 15:29:00+00:00,226.0714,18.7,11.7,47.84626,-54.09684
2022-08-22 15:39:00+00:00,229.2848,18.7,11.7,47.84626,-54.09684
2022-08-22 15:49:00+00:00,230.2897,18.7,11.7,47.84626,-54.09684
2022-08-22 15:59:00+00:00,229.6998,18.7,11.7,47.84626,-54.09684
2022-08-22 16:09:00+00:00,231.2631,18.7,11.7,47.84626,-54.09684
2022-08-22 16:19:00+00:00,235.4148,18.7,11.7,47.84626,-54.09684
2022-08-22 16:29:00+00:00,239.3181,18.7,11.7,47.84626,-54.09684
2022-08-22 16:39:00+00:00,239.8831,18.7,11.7,47.84626,-54.09684
2022-08-22 16:49:00+00:00,241.0314,18.7,11.7,47.84626,-54.09684
2022-08-22 16:59:00+00:00,246.1747,18.76,11.7,47.84626,-54.09684
2022-08-22 17:09:00+00:00,252.0831,18.78,11.7,47.84626,-54.09684
2022-08-22 17:19:01+00:00,253.3247,18.8,11.7,47.84626,-54.09684
2022-08-22 17:29:01+00:00,255.2548,18.8,11.7,47.84626,-54.09684
2022-08-22 17:39:01+00:00,261.6097,18.8,11.7,47.84626,-54.09684
2022-08-22 17:49:01+00:00,267.4631,18.8,11.7,47.84626,-54.09684
2022-08-22 17:59:01+00:00,269.1964,18.82,11.7,47.84626,-54.09684
2022-08-22 18:09:01+00:00,276.8631,18.89,11.7,47.84626,-54.09684
2022-08-22 18:19:00+00:00,288.408,18.89,11.7,47.84626,-54.09684
2022-08-22 18:29:00+00:00,293.998,18.8,11.7,47.84626,-54.09684
2022-08-22 18:39:00+00:00,294.2914,18.8,11.7,47.84626,-54.09684
2022-08-22 18:49:00+00:00,300.5847,18.8,11.7,47.84626,-54.09684
2022-08-22 18:59:00+00:00,305.633,18.8,11.7,47.84626,-54.09684
2022-08-22 19:09:00+00:00,303.5596,18.8,11.7,47.84626,-54.09684
2022-08-22 19:19:00+00:00,303.2314,18.79,11.61,47.84626,-54.09684
2022-08-22 19:29:00+00:00,310.1197,18.8,11.61,47.84626,-54.09684
2022-08-22 19:39:00+00:00,311.2847,18.8,11.61,47.84626,-54.09684
2022-08-22 19:49:00+00:00,308.2463,18.8,11.61,47.84626,-54.09684
2022-08-22 19:59:00+00:00,309.1479,18.8,11.61,47.84626,-54.09684
2022-08-22 20:09:00+00:00,310.7663,18.8,11.61,47.84626,-54.09684
2022-08-22 20:19:00+00:00,310.9763,18.8,11.61,47.84626,-54.09684
2022-08-22 20:29:00+00:00,312.7097,18.8,11.61,47.84626,-54.09684
2022-08-22 20:39:00+00:00,315.6647,18.8,11.61,47.84626,-54.09684
2022-08-22 20:49:00+00:00,313.438,18.8,11.61,47.84626,-54.09684
2022-08-22 20:59:00+00:00,310.2664,18.8,11.61,47.84626,-54.09684
2022-08-22 21:09:00+00:00,313.693,18.8,11.61,47.84626,-54.09684
2022-08-22 21:19:00+00:00,314.1513,18.8,11.61,47.84626,-54.09684
2022-08-22 21:29:00+00:00,311.6046,18.8,11.61,47.84626,-54.09684
2022-08-22 21:39:00+00:00,312.753,18.8,11.61,47.84626,-54.09684
2022-08-22 21:49:00+00:00,313.208,18.8,11.61,47.84626,-54.09684
2022-08-22 21:59:00+00:00,312.2164,18.8,11.61,47.84626,-54.09684
2022-08-22 22:09:00+00:00,308.3397,18.8,11.61,47.84626,-54.09684
2022-08-22 22:19:00+00:00,306.7864,18.8,11.53,47.84626,-54.09684
2022-08-22 22:29:00+00:00,302.4347,18.8,11.53,47.84626,-54.09684
2022-08-22 22:39:00+00:00,299.243,18.8,11.53,47.84626,-54.09684
2022-08-22 22:49:00+00:00,296.7029,18.8,11.53,47.84626,-54.09684
2022-08-22 22:59:00+00:00,294.2646,18.8,11.53,47.84626,-54.09684
2022-08-22 23:09:00+00:00,288.3997,18.8,11.53,47.84626,-54.09684
2022-08-22 23:19:00+00:00,285.4564,18.81,11.53,47.84626,-54.09684
2022-08-22 23:29:00+00:00,280.4414,18.83,11.53,47.84626,-54.09684
2022-08-22 23:39:00+00:00,273.863,18.84,11.53,47.84626,-54.09684
2022-08-22 23:49:00+00:00,264.6248,18.85,11.53,47.84626,-54.09684
2022-08-22 23:59:00+00:00,259.5181,18.87,11.53,47.84626,-54.09684
